Regional Weather Roundup
Issued by NWS Albany, NY

Home | Current Version | Previous Version | Graphics & Text | Print | Product List | Glossary Off
Versions: 1 2 3 4 5 6 7 8 9 10 11 12 13 14 15 16 17 18 19 20 21 22 23 24 25 26 27 28 29 30 31 32 33 34 35 36 37 38 39 40 41 42 43 44 45 46 47 48 49 50

870
ASUS41 KALY 252010
RWRALY

NEW YORK STATE HOURLY WEATHER ROUNDUP
NATIONAL WEATHER SERVICE ALBANY NY
300 PM EST SAT FEB 25 2017

NOTE: "FAIR" INDICATES FEW OR NO CLOUDS BELOW 12,000 FEET WITH NO
SIGNIFICANT WEATHER AND/OR NO OBSTRUCTIONS TO VISIBILITY.

NYZ032-033-038>043-046>054-057>066-NYZ062>081-082-084-252100-
EAST


CITY           SKY/WX    TMP DP  RH WIND       PRES   REMARKS
ALBANY         PTSUNNY   68  50  52 S23G37    29.46F
GLENS FALLS    CLOUDY    68  49  50 S15G29    29.42F
POUGHKEEPSIE   CLOUDY    65  54  67 S14G22    29.49F
NEWBURGH       PTSUNNY   64  57  77 S17G29    29.52F
MONTGOMERY     CLOUDY    67  54  63 S13G28    29.46F
WHITE PLAINS   PTSUNNY   63  55  75 SE12      29.55F
ISLIP          PTSUNNY   61  56  83 S13       29.58F
NEW YORK CITY  CLOUDY    65  55  70 S24       29.55F
CENTRAL PARK   CLOUDY    62  55  77 S10G17    29.57F
$$

NYZ005>009-017-018-044>046-055-056-252100-
CENTRAL


CITY           SKY/WX    TMP DP  RH WIND       PRES   REMARKS
FULTON         RAIN      41  37  86 W22G36    29.53R FOG
SYRACUSE       LGT RAIN  42  42 100 W13       29.53R
ROME           LGT RAIN  43  41  93 W14       29.54R
ELMIRA         LGT RAIN  47  39  74 W14G22    29.48R
BINGHAMTON     LGT RAIN  49  48  97 NW22G32   29.44R
MONTICELLO     MOSUNNY  N/A N/A N/A SE21G31   29.47F
$$

NYZ026>034-041>043-087-252100-
NORTH


CITY           SKY/WX    TMP DP  RH WIND       PRES   REMARKS
WATERTOWN      LGT RAIN  40  39  97 SW21G35   29.52R FOG     WCI  30
FORT DRUM      NOT AVBL
OGDENSBURG     DRIZZLE   47  46  95 SW12      29.41R
MASSENA        RAIN      49  48  97 SW13G18   29.39R FOG
SARANAC LAKE   HVY RAIN  49  48  97 SW15G32   29.40R VSB 1
PLATTSBURGH    CLOUDY    63  50  62 SE14G23   29.34F
$$

NYZ001>004-010>016-019>021-085-252100-
WEST


CITY           SKY/WX    TMP DP  RH WIND       PRES   REMARKS
NIAGARA FALLS  CLOUDY    46  29  51 W30G44    29.51R
BUFFALO        CLOUDY    39  31  72 SW24G36   29.54R WCI  28
DUNKIRK        FLURRIES  37  31  78 W20G38    29.60R WCI  27
JAMESTOWN      CLOUDY    34  28  80 W22G29    29.56R WCI  22
WELLSVILLE     CLOUDY    41  37  86 W7        29.51F
ROCHESTER      CLOUDY    44  31  60 W16G26    29.52F
PENN YAN       LGT RAIN  42  35  76 W10       29.50R
$$

             KEY
       WCI = WIND CHILL INDEX
       VSB = VISIBILITY
       HX  = HEAT INDEX
$$




USA.gov is the U.S. government's official web portal to all federal, state and local government web resources and services.